This is the latest recevied weather packets stored in our database for station/object KB9ZI. If no packets are shown the sender has not sent any weather packets the latest 10 day(s).
| Time | Temp. | Humidity | Pressure | Rain* | Wind** | Luminosity | Snow |
|---|---|---|---|---|---|---|---|
| 1777914894 | 17.22° C | 49% | 999 hPa | 0 mm | - | - | - |
| 1777914836 | 17.22° C | 45% | 999 hPa | 0 mm | - | - | - |
| 1777914653 | 17.78° C | 49% | 998.8 hPa | 0 mm | - | - | - |
| 1777914538 | 17.78° C | 49% | 999 hPa | 0 mm | - | - | - |
| 1777914415 | 17.78° C | 50% | 998.8 hPa | 0 mm | - | - | - |
| 1777914385 | 17.78° C | 50% | 998.8 hPa | 0 mm | - | - | - |
| 1777914177 | 17.78° C | 50% | 998.9 hPa | 0 mm | - | - | - |
| 1777914035 | 17.78° C | 50% | 998.9 hPa | 0 mm | - | - | - |
| 1777913915 | 17.22° C | 47% | 998.9 hPa | 0 mm | - | - | - |
| 1777913810 | 17.22° C | 47% | 998.9 hPa | 0 mm | - | - | - |
| 1777913780 | 17.22° C | 47% | 998.7 hPa | 0 mm | - | - | - |
| 1777913533 | 17.22° C | 47% | 998.8 hPa | 0 mm | - | - | - |
| 1777913470 | 17.78° C | 47% | 998.8 hPa | 0 mm | - | - | - |
| 1777913293 | 17.78° C | 47% | 998.8 hPa | 0 mm | - | - | - |
| 1777913207 | 17.78° C | 48% | 998.8 hPa | 0 mm | - | - | - |
| 1777913177 | 17.22° C | 50% | 998.8 hPa | 0 mm | - | - | - |
| 1777912924 | 17.22° C | 48% | 998.8 hPa | 0 mm | - | - | - |
| 1777912806 | 16.67° C | 48% | 998.8 hPa | 0 mm | - | - | - |
| 1777912682 | 17.22° C | 48% | 998.8 hPa | 0 mm | - | - | - |
| 1777912629 | 17.78° C | 47% | 998.8 hPa | 0 mm | - | - | - |
| 1777912597 | 17.22° C | 47% | 998.7 hPa | 0 mm | - | - | - |
| 1777912323 | 17.78° C | 49% | 998.7 hPa | 0 mm | - | - | - |
| 1777912202 | 17.78° C | 50% | 998.7 hPa | 0 mm | - | - | - |
| 1777912086 | 17.78° C | 50% | 998.6 hPa | 0 mm | - | - | - |
| 1777911967 | 17.78° C | 49% | 998.8 hPa | 0 mm | - | - | - |
* Rain latest hour (hover to see other rain measurements)
** Current wind speed in m/s (hover to see current wind gust speed)